Date String (YYYY-MM-DD hh:mm:ss) UTC,Instrument flags,Ambient pressure (hPa),Sample flow (lpm),Bypass flow (lpm),Sample temperature (°C),Ambient temperature (°C),ASC tube jacket temperature (°C),LED temperature (°C),Box temperature (°C),Sample RH (%),Span deviation,Mass concentration (μg/m³),Mass concentration (μg/m³),Mass concentration (μg/m³)
DateTimeUTC,F1_M11,P_M11,Q1_M11,Q2_M11,T1_M11,T2_M11,T3_M11,T4_M11,T5_M11,U1_M11,ZSPAN_M11,X0_M11,X2_M11,X1_M11
2022-10-13 22:00:00,,0828.3,4.99,0.00,30.0,27.7,00.0,38.7,31.8,13.4,0004.0,0020.12,0009.19,0008.00
2022-10-13 22:01:00,,0828.2,5.02,0.00,30.0,27.9,00.0,38.7,31.7,13.4,0004.2,0020.32,0009.25,0008.02
2022-10-13 22:02:00,,0828.2,5.00,0.00,29.9,28.1,00.0,38.7,31.7,13.5,0004.0,0021.03,0009.30,0008.06
2022-10-13 22:03:00,,0828.3,5.00,0.00,29.9,28.2,00.0,38.7,31.8,13.4,0004.1,0020.34,0009.33,0008.10
2022-10-13 22:04:00,,0828.2,5.00,0.00,29.9,28.3,00.0,38.7,31.8,13.5,0003.6,0019.41,0009.38,0008.14
2022-10-13 22:05:00,,0828.2,5.00,0.00,29.9,28.4,00.0,38.7,31.8,13.5,0003.5,0018.82,0009.36,0008.16
2022-10-13 22:06:00,,0828.3,5.01,0.00,29.9,28.4,00.0,38.7,31.8,13.4,0003.9,0017.46,0009.31,0008.18
2022-10-13 22:07:00,,0828.2,5.00,0.00,29.9,28.5,00.0,38.7,31.8,13.4,0003.6,0018.11,0009.36,0008.19
2022-10-13 22:08:00,,0828.2,5.00,0.00,30.0,28.6,00.0,38.7,31.8,13.1,0003.5,0017.55,0009.38,0008.19
2022-10-13 22:09:00,,0828.2,5.00,0.00,30.0,28.6,00.0,38.8,31.9,13.1,0003.1,0017.76,0009.40,0008.20
2022-10-13 22:10:00,,0828.2,5.00,0.00,30.0,28.7,00.0,38.8,31.9,13.3,0001.3,0017.96,0009.43,0008.20
2022-10-13 22:11:00,,0828.1,5.00,0.00,30.0,28.7,00.0,38.8,31.9,13.4,0003.1,0018.31,0009.45,0008.21
2022-10-13 22:12:00,,0828.1,5.00,0.00,30.0,28.8,00.0,38.8,31.9,13.2,0003.2,0018.30,0009.40,0008.22
2022-10-13 22:13:00,,0828.1,5.00,0.00,30.0,28.8,00.0,38.8,32.0,13.2,0003.0,0018.05,0009.42,0008.23
2022-10-13 22:14:00,,0828.1,5.01,0.00,30.1,28.9,00.0,38.8,32.0,13.2,0002.5,0018.45,0009.48,0008.25
2022-10-13 22:15:00,,0828.1,5.00,0.00,30.1,28.9,00.0,38.8,32.0,13.2,0002.3,0019.12,0009.49,0008.27
2022-10-13 22:16:00,,0828.1,4.98,0.00,30.1,28.9,00.0,38.8,32.0,13.2,0002.2,0018.57,0009.57,0008.27
2022-10-13 22:17:00,,0828.1,5.00,0.00,30.1,29.0,00.0,38.9,32.0,13.4,0002.0,0018.84,0009.55,0008.24
2022-10-13 22:18:00,,0828.1,5.00,0.00,30.1,29.0,00.0,38.9,32.0,13.5,0002.0,0018.75,0009.51,0008.21
2022-10-13 22:19:00,,0828.1,5.00,0.00,30.2,29.0,00.0,38.9,32.1,13.5,0002.4,0018.62,0009.48,0008.21
2022-10-13 22:20:00,,0828.1,5.00,0.00,30.2,28.6,00.0,38.9,32.1,13.4,0002.5,0018.85,0009.48,0008.19
2022-10-13 22:21:00,,0828.1,5.00,0.00,30.2,27.1,00.0,38.9,32.0,13.3,0002.6,0018.85,0009.42,0008.17
2022-10-13 22:22:00,,0828.1,5.02,0.00,30.1,26.6,00.0,38.8,31.9,13.3,0002.9,0018.82,0009.35,0008.15
2022-10-13 22:23:00,,0828.1,4.99,0.00,30.1,26.8,00.0,38.8,31.8,13.3,0002.8,0019.09,0009.36,0008.11
2022-10-13 22:24:00,,0828.1,5.00,0.00,30.0,27.1,00.0,38.8,31.7,13.5,0002.9,0018.95,0009.32,0008.06
2022-10-13 22:25:00,,0828.1,5.01,0.00,29.9,27.4,00.0,38.7,31.7,13.6,0003.3,0018.61,0009.24,0007.99
2022-10-13 22:26:00,,0828.0,4.98,0.00,29.9,27.6,00.0,38.7,31.7,13.6,0004.1,0018.71,0009.23,0007.93
2022-10-13 22:27:00,,0828.1,5.01,0.00,29.9,27.8,00.0,38.7,31.6,13.3,0004.3,0018.73,0009.14,0007.89
2022-10-13 22:28:00,,0828.0,4.99,0.00,29.9,28.0,00.0,38.7,31.6,13.2,0004.1,0018.44,0009.10,0007.89
2022-10-13 22:29:00,,0828.1,4.99,0.00,29.8,28.1,00.0,38.7,31.6,13.1,0004.4,0018.43,0009.14,0007.91
2022-10-13 22:30:00,,0828.1,5.00,0.00,29.8,28.2,00.0,38.7,31.6,13.3,0003.7,0019.06,0009.17,0007.90
2022-10-13 22:31:00,,0828.1,5.01,0.00,29.8,28.2,00.0,38.7,31.7,13.2,0003.6,0018.78,0009.13,0007.89
2022-10-13 22:32:00,,0828.0,5.00,0.00,29.8,28.3,00.0,38.7,31.7,13.2,0003.7,0018.54,0009.09,0007.86
2022-10-13 22:33:00,,0828.0,5.00,0.00,29.8,28.4,00.0,38.7,31.7,13.4,0003.6,0018.85,0009.07,0007.83
2022-10-13 22:34:00,,0828.0,5.00,0.00,29.8,28.5,00.0,38.7,31.7,13.3,0003.6,0019.40,0008.99,0007.80
2022-10-13 22:35:00,,0828.0,5.00,0.00,29.9,28.5,00.0,38.7,31.8,13.3,0003.7,0019.51,0008.96,0007.78
2022-10-13 22:36:00,,0828.0,5.01,0.00,29.9,28.5,00.0,38.7,31.7,13.3,0004.1,0019.29,0008.97,0007.77
2022-10-13 22:37:00,,0828.0,5.00,0.00,29.9,28.6,00.0,38.7,31.7,13.2,0003.6,0019.47,0008.95,0007.75
2022-10-13 22:38:00,,0828.0,5.00,0.00,29.9,28.6,00.0,38.7,31.8,13.2,0003.9,0020.34,0008.94,0007.75
2022-10-13 22:39:00,,0828.0,5.00,0.00,29.9,28.6,00.0,38.7,31.8,13.3,0004.7,0020.97,0008.94,0007.73
2022-10-13 22:40:00,,0828.0,5.00,0.00,29.9,28.6,00.0,38.7,31.8,13.2,0004.4,0021.01,0008.92,0007.71
2022-10-13 22:41:00,,0828.0,5.00,0.00,29.9,28.7,00.0,38.7,31.8,13.5,0004.4,0020.54,0008.84,0007.69
2022-10-13 22:42:00,,0828.0,5.00,0.00,30.0,28.7,00.0,38.8,31.9,13.4,0003.7,0020.83,0008.81,0007.66
2022-10-13 22:43:00,,0828.0,4.98,0.00,30.0,28.8,00.0,38.8,31.9,13.3,0003.2,0020.83,0008.76,0007.64
2022-10-13 22:44:00,,0828.0,5.01,0.00,30.0,28.8,00.0,38.8,31.9,13.4,0003.4,0020.50,0008.76,0007.63
2022-10-13 22:45:00,,0828.0,5.01,0.00,30.0,28.9,00.0,38.8,32.0,13.3,0003.0,0020.31,0008.75,0007.63
2022-10-13 22:46:00,,0828.0,5.00,0.00,30.1,28.9,00.0,38.8,32.0,13.4,0002.7,0020.18,0008.71,0007.62
2022-10-13 22:47:00,,0828.0,4.98,0.00,30.1,28.9,00.0,38.8,32.0,13.5,0002.2,0020.40,0008.67,0007.60
2022-10-13 22:48:00,,0828.0,4.99,0.00,30.1,28.9,00.0,38.8,32.0,13.3,0002.6,0020.82,0008.68,0007.60
2022-10-13 22:49:00,,0828.0,5.02,0.00,30.1,28.8,00.0,38.9,32.0,13.4,0002.5,0019.84,0008.72,0007.61
2022-10-13 22:50:00,,0828.0,4.99,0.00,30.1,27.6,00.0,38.8,31.9,13.4,0001.9,0019.14,0008.72,0007.60
2022-10-13 22:51:00,,0828.0,5.02,0.00,30.1,26.6,00.0,38.8,31.8,13.3,0001.9,0019.52,0008.66,0007.59
2022-10-13 22:52:00,,0828.0,4.98,0.00,30.0,26.7,00.0,38.8,31.7,13.3,0002.0,0020.17,0008.71,0007.61
2022-10-13 22:53:00,,0828.0,5.00,0.00,29.9,27.0,00.0,38.7,31.6,13.3,0001.8,0019.79,0008.71,0007.63
2022-10-13 22:54:00,,0828.0,5.01,0.00,29.9,27.3,00.0,38.7,31.7,13.5,0001.5,0020.06,0008.74,0007.63
2022-10-13 22:55:00,,0828.0,4.99,0.00,29.9,27.6,00.0,38.7,31.7,13.6,0001.3,0019.93,0008.76,0007.61
2022-10-13 22:56:00,,0828.0,5.00,0.00,29.9,27.8,00.0,38.7,31.7,13.5,0001.2,0019.10,0008.75,0007.58
2022-10-13 22:57:00,,0828.0,5.01,0.00,29.9,28.0,00.0,38.7,31.7,13.3,0001.3,0019.88,0008.82,0007.60
2022-10-13 22:58:00,,0828.0,4.99,0.00,29.9,28.1,00.0,38.7,31.7,13.4,0001.7,0019.55,0008.83,0007.62
2022-10-13 22:59:00,,0827.9,5.00,0.00,29.8,28.2,00.0,38.7,31.7,13.4,0002.2,0018.72,0008.75,0007.61
